Weather History for Ingleside, TX

Change the Weather History Date:

Monday, December 16, 2013

  Actual Average Record
Temperature  
Mean Temperature 49 °F -  
Max Temperature 66 °F - - ()
Min Temperature 32 °F - - ()
Degree Days  
Heating Degree Days 16    
Moisture  
Dew Point 39 °F    
Average Humidity 74    
Maximum Humidity 99    
Minimum Humidity 24    
Precipitation  
Precipitation 0.00 in - - ()
Sea Level Pressure  
Sea Level Pressure 30.30 in    
Wind  
Wind Speed 3 mph (SE)    
Max Wind Speed 9 mph    
Max Gust Speed -    
Visibility 7 miles    
Events Fog    
T = Trace of Precipitation, MM = Missing Value Source: NWS Daily Summary

Daily Weather History Graph

Daily Weather History Graph

Search for Another Location

Airport:

Trip Planner

Search our weather history database for the weather conditions in past years. The results will help you decide how hot, cold, wet, or windy it might be!

Date:

Astronomy

Dec. 16, 2013 Rise Set
Actual Time 7:13 AM CST 5:36 PM CST
Civil Twilight 6:47 AM CST 6:01 PM CST
Nautical Twilight 6:18 AM CST 6:31 PM CST
Astronomical Twilight 5:49 AM CST 6:59 PM CST
Moon 5:23 PM CST (12/16) 6:27 AM CST (12/16)
Length of Visible Light 11h 14m
Length of Day
10h 22m
Full, 100% of the Moon is Illuminated
Dec 16
Full
Dec 17
Full
Dec 25
Last Quarter
Jan 1
New
Jan 7
First Quarter

Hourly Weather History & Observations

Time (CST) Temp. Windchill Dew Point Humidity Pressure Visibility Wind Dir Wind Speed Gust Speed Precip Events Conditions
12:15 AM 40.5 °F 38.4 °F 37.0 °F 88% 30.33 in 10.0 mi SW 3.5 mph - N/A   Clear
12:35 AM 41.4 °F 38.4 °F 38.8 °F 91% 30.33 in 10.0 mi WSW 4.6 mph - N/A   Clear
12:55 AM 40.5 °F 38.4 °F 38.1 °F 91% 30.33 in 10.0 mi SW 3.5 mph - N/A   Clear
1:15 AM 37.6 °F 35.1 °F 35.1 °F 91% 30.33 in 10.0 mi SW 3.5 mph - N/A   Clear
1:35 AM 37.8 °F 35.3 °F 34.9 °F 89% 30.33 in 0.5 mi SW 3.5 mph - N/A Fog Fog
1:55 AM 37.2 °F - 35.8 °F 95% 30.33 in 5.0 mi Calm Calm - N/A   Clear
2:15 AM 39.2 °F - 38.1 °F 96% 30.33 in 0.2 mi Calm Calm - N/A Fog Fog
2:35 AM 38.1 °F - 36.9 °F 95% 30.32 in 0.2 mi Calm Calm - N/A Fog Fog
2:55 AM 37.9 °F - 37.0 °F 97% 30.32 in 0.2 mi Calm Calm - N/A Fog Fog
3:15 AM 36.0 °F - 35.2 °F 97% 30.32 in 0.2 mi Calm Calm - N/A Fog Fog
3:35 AM 36.0 °F - 35.4 °F 98% 30.31 in 4.0 mi Calm Calm - N/A   Clear
3:55 AM 35.6 °F - 35.1 °F 98% 30.31 in 10.0 mi Calm Calm - N/A   Clear
4:15 AM 35.4 °F - 34.7 °F 97% 30.31 in 4.0 mi Calm Calm - N/A   Clear
4:35 AM 36.1 °F - 35.6 °F 98% 30.31 in 0.2 mi Calm Calm - N/A Fog Fog
4:55 AM 35.6 °F - 34.9 °F 97% 30.31 in 0.2 mi Calm Calm - N/A Fog Fog
5:15 AM 35.2 °F 32.4 °F 34.9 °F 99% 30.31 in 0.8 mi North 3.5 mph - N/A   Mist
5:35 AM 34.2 °F 30.0 °F 33.8 °F 99% 30.31 in 0.2 mi NNW 4.6 mph - N/A Fog Fog
5:55 AM 34.0 °F - 33.8 °F 99% 30.32 in 2.5 mi Calm Calm - N/A   Clear
6:15 AM 34.3 °F 31.4 °F 34.2 °F 99% 30.32 in 4.0 mi NNW 3.5 mph - N/A   Clear
6:35 AM 34.3 °F 30.2 °F 34.2 °F 99% 30.33 in 5.0 mi North 4.6 mph - N/A   Clear
6:55 AM 34.5 °F 30.4 °F 34.2 °F 99% 30.32 in 7.0 mi NNW 4.6 mph - N/A   Clear
7:15 AM 34.7 °F - 34.3 °F 99% 30.33 in 5.0 mi Calm Calm - N/A   Clear
7:35 AM 34.0 °F - 33.6 °F 99% 30.33 in 4.0 mi Calm Calm - N/A   Clear
7:55 AM 32.7 °F - 32.5 °F 99% 30.33 in 4.0 mi Calm Calm - N/A   Clear
8:15 AM 35.1 °F - 34.7 °F 99% 30.34 in 3.0 mi Calm Calm - N/A   Clear
8:35 AM 39.2 °F - 38.8 °F 99% 30.35 in 5.0 mi Calm Calm - N/A   Clear
8:55 AM 43.3 °F - 42.4 °F 97% 30.35 in 10.0 mi Calm Calm - N/A   Clear
9:15 AM 46.6 °F - 42.4 °F 85% 30.36 in 10.0 mi Calm Calm - N/A   Clear
9:35 AM 50.0 °F - 41.0 °F 71% 30.36 in 10.0 mi Calm Calm - N/A   Clear
9:55 AM 52.7 °F - 40.1 °F 62% 30.36 in 10.0 mi Calm Calm - N/A   Clear
10:15 AM 55.2 °F - 39.0 °F 54% 30.36 in 10.0 mi Calm Calm - N/A   Clear
10:35 AM 57.7 °F - 37.6 °F 47% 30.35 in 10.0 mi Calm Calm - N/A   Clear
10:55 AM 60.4 °F - 33.4 °F 36% 30.35 in 10.0 mi Calm Calm - N/A   Clear
11:15 AM 63.0 °F - 31.6 °F 31% 30.34 in 10.0 mi South 3.5 mph - N/A   Clear
11:35 AM 64.0 °F - 30.7 °F 29% 30.33 in 10.0 mi Calm Calm - N/A   Clear
11:55 AM 64.6 °F - 31.5 °F 29% 30.32 in 10.0 mi South 3.5 mph - N/A   Clear
12:15 PM 65.7 °F - 31.8 °F 28% 30.31 in 10.0 mi SW 6.9 mph - N/A   Clear
12:35 PM 65.8 °F - 30.9 °F 27% 30.30 in 10.0 mi WSW 5.8 mph - N/A   Clear
12:55 PM 65.8 °F - 31.1 °F 27% 30.29 in 10.0 mi SSW 8.1 mph - N/A   Clear
1:15 PM 65.8 °F - 30.0 °F 26% 30.28 in 10.0 mi SW 5.8 mph - N/A   Clear
1:35 PM 66.0 °F - 28.6 °F 25% 30.26 in 10.0 mi SW 5.8 mph - N/A   Clear
1:55 PM 66.6 °F - 28.8 °F 24% 30.25 in 10.0 mi SSW 5.8 mph - N/A   Clear
2:15 PM 66.7 °F - 30.9 °F 26% 30.25 in 10.0 mi South 5.8 mph - N/A   Clear
2:35 PM 66.6 °F - 34.2 °F 30% 30.24 in 10.0 mi SE 6.9 mph - N/A   Clear
2:55 PM 66.2 °F - 36.0 °F 33% 30.24 in 10.0 mi SSE 8.1 mph - N/A   Clear
3:15 PM 65.7 °F - 37.8 °F 36% 30.24 in 10.0 mi SSE 6.9 mph - N/A   Clear
3:35 PM 65.5 °F - 37.8 °F 36% 30.24 in 10.0 mi SE 6.9 mph - N/A   Clear
3:55 PM 65.1 °F - 35.4 °F 33% 30.24 in 10.0 mi SSE 8.1 mph - N/A   Clear
4:15 PM 64.2 °F - 35.1 °F 34% 30.24 in 10.0 mi SE 9.2 mph - N/A   Clear
4:35 PM 63.0 °F - 36.1 °F 37% 30.24 in 10.0 mi SSE 6.9 mph - N/A   Clear
4:55 PM 61.7 °F - 39.2 °F 43% 30.25 in 10.0 mi SE 6.9 mph - N/A   Clear
5:15 PM 59.7 °F - 43.2 °F 54% 30.25 in 10.0 mi ESE 4.6 mph - N/A   Clear
5:35 PM 56.5 °F - 44.1 °F 63% 30.25 in 10.0 mi ESE 4.6 mph - N/A   Clear
5:55 PM 54.9 °F - 44.4 °F 68% 30.25 in 10.0 mi ESE 5.8 mph - N/A   Clear
6:15 PM 53.4 °F - 45.3 °F 74% 30.25 in 10.0 mi East 5.8 mph - N/A   Clear
6:35 PM 52.5 °F - 45.9 °F 78% 30.26 in 10.0 mi East 5.8 mph - N/A   Clear
6:55 PM 51.3 °F - 45.5 °F 81% 30.27 in 10.0 mi East 4.6 mph - N/A   Clear
7:15 PM 50.7 °F - 46.0 °F 84% 30.27 in 10.0 mi East 5.8 mph - N/A   Clear
7:35 PM 50.0 °F - 46.9 °F 89% 30.27 in 10.0 mi East 5.8 mph - N/A   Clear
7:55 PM 49.6 °F - 48.0 °F 94% 30.27 in 10.0 mi ESE 5.8 mph - N/A   Clear
8:15 PM 49.3 °F - 48.2 °F 96% 30.27 in 7.0 mi ESE 5.8 mph - N/A   Clear
8:35 PM 48.7 °F - 48.0 °F 97% 30.27 in 7.0 mi ESE 5.8 mph - N/A   Clear
8:55 PM 49.1 °F - 48.4 °F 97% 30.27 in 5.0 mi ESE 5.8 mph - N/A   Clear
9:15 PM 48.7 °F - 48.0 °F 97% 30.27 in 3.0 mi SE 5.8 mph - N/A   Clear
9:35 PM 48.4 °F - 48.0 °F 99% 30.28 in 1.0 mi SE 4.6 mph - N/A   Mist
9:55 PM 48.7 °F - 48.2 °F 98% 30.28 in 4.0 mi SE 4.6 mph - N/A   Clear
10:15 PM 49.8 °F - 49.5 °F 99% 30.28 in 3.0 mi ESE 3.5 mph - N/A   Clear
10:35 PM 49.8 °F - 49.5 °F 99% 30.28 in 10.0 mi East 3.5 mph - N/A   Clear
10:55 PM 50.2 °F - 50.0 °F 99% 30.28 in 5.0 mi East 3.5 mph - N/A   Clear
11:15 PM 50.4 °F - 50.2 °F 99% 30.28 in 2.0 mi ESE 3.5 mph - N/A   Clear
11:55 PM 46.9 °F - 46.8 °F 99% 30.27 in 0.2 mi SE 3.5 mph - N/A Fog Fog